Weather Roundup
Issued by NWS

Home | Current Version | Previous Version | Graphics & Text | Print | Product List | Glossary Off
Versions: 1 2 3 4 5 6 7 8 9 10 11 12 13 14 15 16 17 18 19 20 21 22 23 24 25 26 27 28 29 30 31 32 33 34 35 36 37 38 39 40 41 42 43 44 45 46 47 48 49 50

000
NZUS93 KARX 281559
HRRWXR

CURRENT HOURLY OBSERVATIONS ACROSS
MUCH OF THE UPPER MISSISSIPPI VALLEY
NATIONAL WEATHER SERVICE LA CROSSE WI
1100 AM CDT MON JUL 28 2014


...SOUTHEAST MINNESOTA...


CITY           SKY/WX    TMP DP  RH WIND       PRES   REMARKS
ROCHESTER      CLOUDY    68  54  60 N7        30.22S
ROCHESTER/MAYO CLOUDY    66  51  56 NW3       30.21S
WINONA         SUNNY     70  52  52 CALM      30.19S
AUSTIN         PTSUNNY   68  57  68 NW7       30.20F
ALBERT LEA     PTSUNNY   70  55  60 N8        30.21F
DODGE CENTER   CLOUDY    66  57  72 NW7       30.21S
PRESTON        CLOUDY    65  59  83 N5        30.21S
OWATONNA       CLOUDY    68  57  68 NW9       30.22S
FARIBAULT      CLOUDY    72  55  56 W6        30.21F
$$

...ELSEWHERE IN MINNESOTA...


CITY           SKY/WX    TMP DP  RH WIND       PRES   REMARKS
MINNEAPOLIS    CLOUDY    70  56  61 VRB5      30.21S
INTNL FALLS    MOSUNNY   69  53  56 NW14      30.20S
DULUTH         MOSUNNY   68  53  58 NW9G21    30.18S
RED WING       CLOUDY    70  57  64 W3        30.19S
REDWOOD FALLS  CLOUDY    70  60  70 VRB7      30.25R
MANKATO        CLOUDY    66  57  72 NW7       30.23S
WORTHINGTON    CLOUDY    64  57  77 NE7       30.27F
FAIRMONT       CLOUDY    70  57  64 N8        30.24S
$$

...SOUTHWEST WISCONSIN...


CITY           SKY/WX    TMP DP  RH WIND       PRES   REMARKS
LA CROSSE      SUNNY     71  53  52 NW9       30.17S
PRAIRIE DU CHI SUNNY     69  46  44 N10       30.17S
BOSCOBEL       SUNNY     72  49  44 MISG      30.17S
LONE ROCK      NOT AVBL
PLATTEVILLE    SUNNY     67  50  54 N17       30.17S
FORT MC COY    SUNNY     68  50  52 N8        30.17F
VIROQUA        FAIR      67  50  55 N10       30.18S
WIS DELLS      SUNNY     67  46  46 N9        30.15S
$$

...ELSEWHERE IN WISCONSIN...


CITY           SKY/WX    TMP DP  RH WIND       PRES   REMARKS
MILWAUKEE      MOSUNNY   63  46  54 NE17      30.10R
MADISON        MOSUNNY   68  49  50 N10G20    30.14S
GREEN BAY      CLOUDY    63  47  55 N9        30.11S
EAU CLAIRE     NOT AVBL
BLACK RVR FLS  FAIR      69  50  50 N6        30.16F
MEDFORD        MOSUNNY   64  52  65 NW12      30.16S
WAUSAU         SUNNY     67  51  56 NW12G23   30.12S
WIS RAPIDS     CLOUDY    68  52  56 NW12      30.16S
MARSHFIELD     CLOUDY    69  51  52 NW16      30.15F
RICE LAKE      CLOUDY    66  53  64 W5        30.20S
$$

...NORTHEAST IOWA...


CITY           SKY/WX    TMP DP  RH WIND       PRES   REMARKS
WATERLOO       MOSUNNY   69  55  60 N9        30.19S
DUBUQUE        SUNNY     66  49  54 N18G25    30.16S
DECORAH        PTSUNNY   68  55  64 NW9       30.19R
MASON CITY     PTSUNNY   71  59  65 NW7       30.23S
CHARLES CITY   MOSUNNY   68  57  68 N10G16    30.21S
OELWEIN        SUNNY     66  55  68 N10G16    30.20S
$$

...ELSEWHERE IN IOWA...


CITY           SKY/WX    TMP DP  RH WIND       PRES   REMARKS
DES MOINES     MOSUNNY   73  53  49 N7        30.21S
IOWA CITY      SUNNY     70  51  51 N15G28    30.18S
FORT DODGE     PTSUNNY   68  57  68 NE6       30.24S
MARSHALLTOWN   PTSUNNY   70  54  56 N10       30.21R
CEDAR RAPIDS   SUNNY     69  49  48 N14       30.18R
$$

...NORTHERN ILLINOIS...


CITY           SKY/WX    TMP DP  RH WIND       PRES   REMARKS
CHICAGO-OHARE  MOSUNNY   65  43  44 N14G22    30.08R
DUPAGE         SUNNY     67  49  52 N14       30.08R
CHICAGO-MIDWAY MOSUNNY   68  50  52 N13       30.07R
MOLINE         MOSUNNY   68  49  50 N14       30.14S
ROCKFORD       MOSUNNY   68  46  45 N21G26    30.13S
STERLING       MOSUNNY   70  50  49 NE12G22   30.13S
PEORIA         MOSUNNY   69  50  50 N9G20     30.12R
$$

NOTE: "FAIR" INDICATES FEW OR NO CLOUDS BELOW 12,000 FEET WITH NO
SIGNIFICANT WEATHER AND/OR OBSTRUCTIONS TO VISIBILITY. WIND
SPEEDS ARE IN MILES-PER-HOUR.



USA.gov is the U.S. government's official web portal to all federal, state and local government web resources and services.